This demonstration page uses our WeatherBlox Daily Observations layout. Learn more.

41.55636, -103.73856

Hourly Observations for May 3, 2016

Temp ( °F °C ) Dew Point ( °F °C ) Humidity (%) Winds ( mph kmh ) Pressure ( in mb ) Visibility ( mi km ) Precip ( " mm )
12:53 am 00:53 Clear 43 6.1 38 3.3 82 82 W 6 9 30.04 1017 10 16.0934 0 0.0254
1:53 am 01:53 Clear 42 5.6 37 2.8 82 82 NW 12 19 30.04 1017 10 16.0934 0 0
2:53 am 02:53 Clear 41 5 36 2.2 82 82 WNW 9 15 30.04 1017 10 16.0934 0 0
3:53 am 03:53 Clear 39 3.9 34 1.1 82 82 WNW 8 13 30.06 1018 10 16.0934 0 0
4:53 am 04:53 Clear 37 2.8 33 0.6 86 86 WNW 7 11 30.07 1018 10 16.0934 0 0
5:53 am 05:53 Sunny 37 2.8 33 0.6 86 86 NW 6 9 30.09 1019 10 16.0934 0 0
6:53 am 06:53 Sunny 41 5 36 2.2 82 82 WNW 7 11 30.11 1020 10 16.0934 0 0
7:53 am 07:53 Sunny 48 8.9 39 3.9 71 71 W 8 13 30.11 1020 10 16.0934 0 0
8:53 am 08:53 Sunny 52 11.1 40 4.4 64 64 W 7 11 30.12 1020 10 16.0934 0 0
9:53 am 09:53 Sunny 60 15.6 42 5.6 52 52 WNW 10 17 30.11 1020 10 16.0934 0 0
10:53 am 10:53 Sunny 65 18.3 38 3.3 37 37 NNW 15 24 30.09 1019 10 16.0934 0 0
11:53 am 11:53 Sunny 68 20 35 1.7 30 30 NNW 18 30 30.08 1019 10 16.0934 0 0
12:53 pm 12:53 Sunny 70 21.1 35 1.7 28 28 N 18 30 30.06 1018 10 16.0934 0 0
1:53 pm 13:53 Sunny 71 21.7 33 0.6 25 25 N 20 31 30.06 1018 10 16.0934 0 0
2:53 pm 14:53 Sunny 72 22.2 33 0.6 24 24 N 16 26 30.05 1018 10 16.0934 0 0
3:53 pm 15:53 Sunny 73 22.8 36 2.2 26 26 N 10 17 30.04 1017 10 16.0934 0 0
4:53 pm 16:53 Mostly Sunny 73 22.8 35 1.7 25 25 N 14 22 30.05 1018 10 16.0934 0 0
5:53 pm 17:53 Sunny 73 22.8 35 1.7 25 25 N 13 20 30.05 1018 10 16.0934 0 0
6:53 pm 18:53 Mostly Sunny 71 21.7 38 3.3 30 30 N 9 15 30.04 1017 10 16.0934 0 0
7:53 pm 19:53 Sunny 63 17.2 39 3.9 41 41 N 7 11 30.05 1018 10 16.0934 0 0
8:53 pm 20:53 Clear 56 13.3 40 4.4 55 55 NE 7 11 30.09 1019 10 16.0934 0 0
9:53 pm 21:53 Clear 53 11.7 40 4.4 61 61 Calm 30.09 1019 10 16.0934 0 0
10:53 pm 22:53 Clear 50 10 41 5 71 71 NNE 5 7 30.1 1019 10 16.0934 0 0
11:53 pm 23:53 Clear 49 9.4 40 4.4 71 71 NNE 5 7 30.1 1019 10 16.0934 0 0

Powered by AerisWeather